User: anonymous   Login
Location: Fort Wayne
(41.1310°N, 85.1290°W)
Time: 16:41:06
(UTC-04:00)
Language:

Cosmos 2082 - Orbit

View from above orbital plane
View from above orbital plane
View from above satellite
View from above satellite

Ground track
Ground track

The orbit data is extracted from the following two-line orbital elements,

1 20624U 90046A   16211.94287226 -.00000195 +00000-0 -77616-4 0  9992
2 20624 071.0394 169.0258 0014420 167.3588 192.7899 14.14199548351415
Epoch (UTC): 29 July 2016 22:37:44
Eccentricity: 0.0014420
inclination: 71.0394°
perigee height: 834 km
apogee height: 855 km
right ascension of ascending node: 169.0258°
argument of perigee: 167.3588°
revolutions per day: 14.14199548
mean anomaly at epoch: 192.7899°
orbit number at epoch: 35141

The dashed part of the orbit path shows where the satellite is in the earth's shadow,  

DLR